STARLINK-34659, 64913

Orbit data source: Space-Track

STARLINK-34659, 64913 is a payload satellite owned by SpaceX/Seattle (US) in LEO that was launched on Sat, 26 Jul 2025 UTC via an FALCON 9 launch vehicle from the Air Force Eastern Test Range (AFETR). Payload-class satellites include a variety of spacecraft equipped with specific instruments for various scientific and technological missions. These include communications satellites like Starlink; space stations such as the ISS; scientific satellites like the Hubble; Earth observation satellites from companies like Planet Labs, Umbra, and HawkEye 360; GPS; miniature CubeSats for education and research; and military/defense satellites.

Loading next visibility...
Identifier
64913, 2025-157K
Orbit
LEO
Country
Flag of USUS
Related business
Manufacturer
SpaceX/Seattle
Mission
Operational Commercial Communications
Bus & Motor
STARLINK V2MO, Unknown motor
Mass
575 kg wet, ~530 kg dry
Launch date (UTC)
2025-07-26 (10 months ago)
Launch vehicle
FALCON 9
Launch site
Air Force Eastern Test Range (AFETR)
Object type
Payload
Rocket body
Debris
Shape & HBR
Box + 2 Pan, 17.7 m
Radar Cross Section
36.964 m², Large (>1 m²)

Expand to show TLE details & history
Last TLE update: 14 hours ago

TLE from 14 hours ago
0 STARLINK-34659
1 64913U 25157K   26145.27042250  .00030308  00000-0  98379-3 0  9996
2 64913  53.1590 349.6020 0001363  68.8108 291.3038 15.31721856 47800
Epoch: 2026-05-25T06:29Z
TLE epoch observation values (Epoch: 2026-05-25T06:29:24.504Z)
Latitude
-0.00007°
Longitude
9.38922°
Altitude
471.236 km
Speed
7.632 km/s
True Right ascension
23h 18m 24s
True Declination
0° 00' 00"
Sunlit
Object was in daylight at epoch
Visualization orbit readout
Latitude
Unknown
Longitude
Unknown
Altitude
Unknown
Speed
Unknown
Apparent Right ascension
Unknown
Apparent Declination
Unknown
Sunlit
N/A
Visualization observer readout
Local Sidereal Time
06:09:30
Azimuth
Unknown
Elevation
Unknown
Doppler factor
Unknown
Orbital elements
Apogee altitude
471.865 km
Perigee altitude
469.998 km
Semi-major axis
6,849.069 km
Eccentricity
0.00014
Inclination
53.159°
RAAN
349.602°
Arg. of periapsis
68.8108°
True anomaly
291.28925°
Mean anomaly
291.3038°
Eccentric anomaly
291.29652°
Mean motion
3.82909 °/min
Orbital period
94.02 mins
BSTAR
0.00098379
Loading maneuver chart data...
Computing Atmospheric mass density...
Loading historical data...
Loading historical data...
Loading historical data...
Loading historical data...
Loading historical data...
Loading historical data...
Loading historical data...

Documentation

Showing up to 5 results
|